{"data":{"norad_id":63505,"intl_designator":"2025-071N","name":"STARLINK-33825","alt_names":[],"object_type":"PAYLOAD","status":"ACTIVE","operator":null,"country":"US","launch_date":"2025-04-07","launch_site_code":"AFWTR","launch_vehicle":null,"mission":null,"orbit_class":"UNKNOWN","rcs_meters":null,"size_class":null,"mass_kg":null,"dimensions":null,"purposes":["comms"],"wikipedia_slug":null,"has_3d_model":false,"image_url":null,"decayed_at":null,"tle_current":{"epoch":"2026-05-24T23:29:49.775712Z","epoch_age_seconds":80347,"freshness":"FRESH","line1":"1 63505U 25071N   26144.97904833  .00013066  00000+0  45230-3 0  9996","line2":"2 63505  53.1581 145.3162 0001487  68.6529 291.4630 15.30213924 64456","mean_motion":15.30213924,"eccentricity":0.0001487,"inclination_deg":53.1581,"raan_deg":145.3162,"arg_perigee_deg":68.6529,"mean_anomaly_deg":291.463,"bstar":0.0004523,"rev_number":6445,"period_min":94.104489406019,"perigee_km":474.15440790976,"apogee_km":476.19258245103,"semimajor_km":6853.3104951804,"source":"CELESTRAK","updated_at":"2026-05-25T13:38:20.014098Z"}}}